Zurück zum Katalog

BREEZE-M DEB

AktivHEO
NORAD 41320·DEBRIS·🇷🇺 Russia

Gestartet May 17, 2012 von Baikonur Cosmodrome

Loading…

Nächste Überflüge (nächste 24 Stunden)

TLE

AktuellSource: Space-Track

Epoche: Sep 14, 2026, 01:40 UTC

1 41320U 12026G   26257.06961030 -.00000125  00000-0  00000-0 0  9997
2 41320  10.1151 133.6507 4118260  52.4794 338.4393  1.76040423 68991

Verfolge BREEZE-M DEB in Echtzeit mit AllMySat

Download on the App Store